SCP
-0 -0 -0 0 -0 0 0 0 0 0 0 0 -0 -0 -0 -0 -0 -0 -0 -0 -0 -0 0 0 0 0 0 0 0 -0 -0 -0 -0 0 0 0 0 0 0 0 0 0 0 0 0 0 0
-0 -0 0 -0 0 -0 -0 -0 -0 0 0 0 -0 -0 -0 -0 -0 -0 -0 -0 0 0 0 0 0 0 0 0 -0 -0 -0 0 -0 0 0 0 0 0 0 0 0 0 0 0 0 0 0
-0 0 -0 -0 0 0 0 0 0 0 0 0 -0 -0 -0 -0 -0 -0 -0 -0 0 0 0 0 0 0 0 -0 -0 -0 0 0 0 0 0 0 0 0 0 0 0 0 0 0 0 0 0
-0 -0 -0 -0 0 0 -0 0 0 0 0 0 0 -0 -0 -0 -0 -0 -0 -0 -0 -0 0 0 0 0 0 -0 0 -0 -0 -0 0 0 0 0 0 0 0 0 0 0 0 0 0 0 0
0 0 0 0 0 0 0 0 0 0 0 0 0 -0 -0 -0 -0 -0 -0 -0 -0 -0 0 0 0 0 0 0 0 -0 -0 0 0 0 -0 -0 0 0 0 0 0 0 0 0 0 0 0
0 0 0 0 0 0 0 0 0 0 0 0 -0 -0 -0 -0 -0 -0 -0 -0 0 0 0 0 0 0 0 0 0 -0 -0 -0 0 0 0 0 0 0 0 0 0 0 0 0 0 0 0
0 0 0 0 0 0 0 0 0 0 0 0 -0 -0 -0 -0 -0 -0 0 0 0 0 0 0 0 0 0 0 0 0 0 0 0 0 0 0 0 0 0 0 0 0 0 0 0 0 0
0 0 0 0 0 0 0 0 0 0 0 0 -0 -0 -0 -0 -0 -0 0 0 0 0 0 0 -0 0 -0 -0 0 0 0 0 0 0 0 0 0 0 0 0 0 0 0 0 0 0 0
0 0 0 0 0 0 0 0 0 0 0 0 -0 -0 -0 -0 -0 0 0 0 0 0 0 -0 -0 -0 -0 0 0 -0 0 0 0 0 0 0 0 0 0 0 0 0 0 0 0 0 0
0 0 0 0 0 0 0 0 0 0 0 0 0 -0 -0 -0 0 0 0 0 0 0 0 -0 -0 -0 0 0 -0 -0 0 0 0 0 0 0 0 0 0 0 0 0 0 0 0 0 0
0 0 0 0 0 0 0 0 0 0 0 0 0 -0 0 0 0 0 -0 -0 -0 -0 0 -0 -0 -0 0 0 0 0 0 0 0 0 0 0 0 0 0 0 0 -0 0 0 0 0 0
0 0 0 0 0 0 0 0 0 0 0 0 0 0 0 0 0 0 -0 -0 -0 0 0 0 0 0 0 0 0 0 0 0 0 0 0 0 0 0 0 0 0 0 0 0 0 0 0
0 0 0 0 0 0 0 0 0 0 0 0 0 0 -0 0 0 0 0 -0 0 0 0 0 0 0 -0 0 0 0 0 0 0 0 0 0 0 0 0 0 0 0 0 -0 0 0 0
0 0 0 0 0 0 0 0 0 0 0 0 -0 0 0 0 0 0 0 0 0 0 0 0 0 0 0 0 0 0 0 0 0 0 0 0 0 0 0 0 0 0 0 0 0 0 0
0 0 0 0 0 0 0 0 0 0 -0 -0 0 0 0 0 0 0 0 0 0 0 0 0 0 0 0 0 0 0 0 0 0 0 0 0 0 0 0 0 0 0 0 0 0 0 0
-0 0 0 0 0 0 0 0 0 0 0 0 0 0 0 0 0 0 0 0 0 0 0 0 0 0 0 0 0 0 0 0 0 0 0 0 0 0 0 0 0 0 0 0 0 0 0
-0 -0 -0 0 0 0 0 0 0 0 0 0 0 0 0 0 0 0 0 0 0 0 0 0 0 0 0 0 0 0 0 0 0 0 0 0 0 0 0 0 0 0 0 0 0 0 0
-0 -0 -0 -0 0 0 0 0 0 0 0 0 0 0 0 0 0 0 0 0 0 0 0 0 0 0 0 0 0 0 0 0 0 0 0 0 0 0 0 0 0 0 0 0 0 0 0
-0 -0 -0 -0 -0 0 0 0 0 0 -0 0 0 0 0 0 0 0 0 0 0 0 0 0 0 0 0 0 0 0 0 0 0 0 0 0 0 0 0 0 0 0 0 0 0 0 0
0 0 -0 -0 -0 0 0 0 0 0 0 0 0 0 0 0 0 0 0 0 0 0 0 0 0 0 0 0 0 0 0 0 0 0 0 0 0 0 0 0 0 0 0 0 0 0 0
0 -0 -0 -0 0 0 0 0 0 0 0 0 0 0 0 0 0 0 0 0 0 0 0 0 0 0 0 0 0 0 0 0 0 0 0 0 0 0 0 0 0 0 0 -0 0 0 0
0 0 -0 0 0 0 0 0 0 0 0 0 0 0 0 0 0 0 0 0 0 0 0 0 0 0 0 0 0 0 0 0 0 0 0 0 0 0 0 0 0 0 0 0 -0 0 0
0 0 -0 -0 0 0 0 0 0 0 0 0 0 0 0 0 0 0 0 0 0 0 0 0 0 0 0 0 0 0 0 0 0 0 0 0 0 0 -0 0 0 0 0 0 0 0 0
0 0 0 0 0 0 0 0 0 0 0 0 0 0 0 0 0 0 0 0 0 0 0 0 0 0 0 0 0 0 0 0 0 0 0 0 0 0 0 0 0 0 0 0 0 0 0
0 0 0 0 0 0 0 0 0 0 0 0 0 0 0 0 0 0 0 0 0 0 0 0 0 0 0 0 0 0 0 0 0 0 0 0 0 0 0 0 0 0 0 0 0 0 0
0 0 0 0 0 0 0 0 0 0 0 0 0 0 0 0 0 0 0 0 0 0 0 0 0 0 0 0 0 0 0 0 0 0 0 0 0 0 0 0 0 0 0 0 0 0 0
0 0 0 0 0 0 0 0 0 0 0 0 0 0 0 0 0 0 0 0 0 0 0 0 0 0 0 0 0 0 0 0 0 0 0 0 0 0 0 0 0 0 0 0 0 0 0
0 0 0 0 0 0 0 0 0 0 0 0 0 0 0 0 0 0 0 0 0 0 0 0 0 0 0 0 0 0 0 0 0 0 0 0 0 0 0 0 0 0 0 0 0 0 0
0 0 0 0 0 0 0 0 0 0 0 0 0 0 0 0 0 0 0 0 0 0 0 0 0 0 0 0 0 0 0 0 0 0 0 0 0 0 0 0 0 0 0 0 0 0 0
Wind_Speed_500mb
43 44 44 46 46 46 46 46 45 46 45 45 44 44 43 39 36 35 33 29 27 25 28 30 27 22 10 6 6 6 7 15 11 7 14 12 12 11 6 7 14 11 18 34 46 52 47
44 44 44 45 45 46 48 49 49 50 50 50 48 46 46 43 40 37 33 30 26 23 27 26 20 12 4 6 6 12 14 10 6 3 10 10 11 13 4 2 2 14 17 24 21 31 31
43 45 47 47 47 50 51 51 52 53 51 49 48 48 49 46 40 36 31 27 23 20 22 20 12 12 11 11 6 4 9 9 6 6 10 8 14 11 17 14 19 24 13 14 10 5 8
43 44 46 48 48 48 51 53 56 58 57 51 47 45 47 45 41 32 27 21 15 15 18 8 11 12 7 11 6 4 5 8 9 12 14 12 13 9 4 13 18 12 7 7 8 16 10
43 44 47 49 49 51 51 54 56 59 63 57 44 44 47 44 36 26 22 17 11 9 8 9 1 7 9 9 5 1 7 6 13 8 16 19 20 10 5 3 8 5 7 7 12 15 12
44 47 50 53 55 54 54 54 58 60 63 62 44 41 41 38 27 20 22 18 9 4 1 11 6 8 3 6 10 7 3 5 12 18 19 13 10 5 4 7 6 11 9 4 4 10 4
46 50 52 53 55 57 56 55 60 62 61 60 46 37 31 26 18 20 30 13 20 2 30 19 11 12 27 6 7 2 13 10 13 6 3 6 7 11 21 17 20 11 10 8 5 11 8
48 50 53 55 55 56 55 57 60 64 61 59 48 35 19 12 13 16 19 25 22 18 16 30 31 36 32 18 6 11 14 3 8 8 13 13 5 9 12 9 6 11 11 11 12 12 12
48 52 53 54 56 56 58 59 60 62 61 56 47 31 19 8 11 14 17 20 18 25 6 20 12 18 16 18 8 13 9 4 1 6 7 5 15 13 11 6 12 10 10 15 18 22 14
52 52 53 55 55 54 56 58 61 61 60 55 43 27 14 5 7 22 29 26 27 32 6 7 9 7 20 12 8 20 21 10 0 7 9 10 9 7 12 7 8 6 12 17 21 17 8
55 55 53 53 54 54 52 58 63 61 58 54 37 23 4 11 10 28 34 30 23 19 8 12 7 14 10 11 7 13 25 18 12 13 2 17 9 14 6 6 3 11 12 7 17 21 7
59 57 54 53 56 56 56 62 64 60 56 49 29 17 4 3 8 20 27 22 11 7 7 5 5 6 3 17 23 19 27 23 18 10 8 18 12 6 10 6 3 2 6 11 9 4 8
61 56 54 53 60 55 59 64 65 59 55 39 19 12 8 6 13 21 21 10 9 8 16 15 12 13 13 8 9 14 9 7 9 2 6 7 2 5 4 5 11 12 9 9 9 5 10
60 58 53 56 59 59 62 65 64 57 50 30 11 16 9 10 20 28 22 8 14 11 14 12 19 23 6 11 8 9 7 8 20 7 3 3 11 9 3 2 9 9 10 8 8 7 13
57 59 58 57 58 59 62 63 61 53 44 22 10 8 7 12 27 18 5 10 4 9 11 12 16 9 12 25 16 16 13 8 6 9 4 6 7 18 13 8 5 6 8 12 8 12 13
56 59 60 59 56 58 60 62 58 53 41 13 8 8 8 18 16 15 10 2 5 6 2 8 8 9 9 13 10 12 9 6 4 7 2 6 11 7 7 16 7 4 6 6 5 7 9
53 55 57 58 58 58 58 61 64 52 43 15 8 7 17 12 13 10 5 7 5 18 12 4 5 5 9 7 7 8 7 15 9 7 11 5 4 10 9 5 8 9 3 5 4 8 8
52 53 54 55 56 56 55 58 60 55 52 20 11 5 12 12 11 5 5 12 17 25 9 4 4 3 1 7 7 6 7 4 12 9 3 2 4 8 16 29 18 11 12 8 7 7 8
49 51 52 54 55 54 52 52 52 49 53 46 18 10 5 13 4 6 12 12 5 13 6 8 6 7 7 6 5 5 5 11 7 3 3 4 2 8 14 9 8 7 7 11 6 4 16
47 47 49 52 54 52 51 49 44 37 38 31 13 8 9 5 7 4 10 9 10 21 13 13 5 9 6 5 6 8 6 8 20 8 12 16 10 14 12 15 9 27 34 28 18 10 17
46 48 48 51 53 54 51 48 44 37 28 22 15 5 8 8 9 14 4 9 17 9 10 8 5 4 3 7 9 9 6 11 19 26 11 14 12 13 24 32 32 38 41 36 33 33 17
44 45 48 50 53 55 55 52 47 40 26 16 10 11 12 18 23 12 8 6 7 14 10 11 7 12 4 7 15 24 13 6 12 11 10 5 9 5 30 28 32 37 33 30 33 32 10
45 44 46 48 52 53 53 51 49 45 36 10 14 9 6 11 11 6 2 9 16 21 11 15 12 10 10 12 31 36 36 35 27 17 10 10 7 9 33 11 24 20 9 3 5 13 10
41 45 45 46 48 51 50 48 45 42 37 23 7 9 7 8 4 7 20 33 20 24 14 17 24 8 13 47 49 46 54 51 46 37 32 18 6 5 9 8 6 7 5 5 7 20 16
38 43 44 44 46 48 48 47 44 38 31 20 4 5 5 7 12 30 9 10 33 29 11 28 18 36 50 30 7 13 10 7 8 16 5 21 9 5 4 6 14 11 8 8 2 17 18
38 39 44 42 44 46 46 46 47 42 34 25 6 7 6 13 9 12 21 20 5 9 11 12 43 36 15 3 3 6 5 7 6 7 16 14 7 4 2 4 10 10 6 12 7 12 12
39 37 42 43 43 45 45 44 43 44 39 28 3 13 10 14 34 22 9 8 17 11 8 19 26 22 16 5 1 6 7 7 4 3 8 6 3 13 11 9 13 8 13 11 3 12 15
38 40 39 42 44 43 45 45 42 41 39 31 13 10 12 17 57 56 47 47 29 21 6 14 20 8 9 4 3 5 5 6 8 6 5 11 10 7 5 9 13 18 9 10 11 26 32
37 37 39 39 44 45 44 44 42 40 36 30 25 14 26 31 49 80 75 73 75 82 56 24 19 10 7 3 5 6 6 6 4 6 5 5 8 4 11 11 13 24 29 36 51 45 67
Wind_Direction_500mb
21 19 16 13 11 8 6 3 360 356 352 349 346 341 335 326 320 316 314 313 318 321 322 317 313 320 328 287 241 45 68 99 83 36 353 329 270 244 210 236 299 251 278 273 267 263 260
20 17 14 11 8 6 2 358 354 350 347 344 342 340 338 330 321 314 308 304 307 314 322 323 323 327 299 285 96 42 78 65 36 4 306 339 359 337 246 281 160 303 301 289 289 288 294
20 19 17 15 13 10 7 3 358 351 344 339 338 338 339 335 325 315 306 300 298 308 321 318 327 326 272 231 139 329 320 341 315 253 5 323 341 335 351 335 327 310 310 319 299 282 268
17 15 13 12 12 8 5 2 1 358 353 344 337 337 340 339 331 322 315 308 294 299 321 317 331 314 254 147 250 252 282 265 350 251 267 301 293 304 289 302 330 338 345 320 342 358 282
11 8 7 5 3 0 357 358 356 355 355 351 343 340 342 343 339 337 339 329 304 299 317 334 357 313 277 187 122 123 286 331 327 286 268 281 233 208 251 106 0 300 251 264 314 251 253
0 358 356 355 353 351 351 352 353 352 352 352 346 344 346 347 355 10 9 6 344 42 29 329 225 312 216 170 176 297 178 267 306 300 304 256 201 119 15 89 236 243 260 276 265 337 1
355 352 352 353 351 350 351 352 352 349 347 349 346 344 349 360 11 25 37 31 19 44 324 260 262 277 295 87 25 208 147 344 352 320 295 317 107 225 242 214 237 259 247 281 254 265 292
354 352 351 351 351 351 351 352 352 349 347 346 346 341 344 13 19 15 31 35 24 332 308 287 259 257 266 275 247 297 192 148 7 310 335 10 294 276 257 289 321 325 313 302 270 283 294
356 354 353 353 354 355 352 351 351 352 349 348 346 341 337 323 359 14 357 8 353 327 329 298 221 229 243 221 221 248 215 137 95 338 340 181 258 302 328 349 6 1 354 343 321 324 313
357 356 354 355 357 356 353 352 350 350 350 349 347 345 342 344 59 40 13 13 335 319 54 270 174 191 179 194 255 233 210 165 171 246 271 258 261 330 309 343 40 333 340 327 324 331 276
357 355 355 358 0 358 358 353 350 350 349 349 349 352 349 72 36 18 352 331 313 315 59 187 164 188 197 194 294 184 187 174 192 226 156 255 268 294 292 166 129 229 319 292 284 276 280
357 355 356 359 1 358 356 352 351 352 350 352 354 11 148 9 42 343 340 344 311 38 63 104 91 341 17 239 256 181 184 222 252 214 218 240 273 134 186 248 220 325 334 319 300 189 230
360 359 358 0 358 357 354 352 351 354 350 359 20 54 81 43 345 351 357 349 47 64 342 4 2 336 317 281 301 164 199 228 225 22 297 329 352 173 111 336 345 58 44 344 331 349 238
3 3 3 359 356 353 352 350 350 355 352 6 59 73 38 10 2 353 349 54 65 18 24 17 337 313 338 12 13 358 354 305 17 83 99 190 335 23 62 244 240 235 175 166 261 291 303
358 358 355 355 356 354 354 353 352 358 355 13 69 41 337 13 3 11 4 52 26 6 30 346 336 20 358 4 6 16 11 42 34 48 62 7 257 320 295 3 79 262 222 218 242 270 265
358 359 359 1 4 3 2 1 2 4 1 11 37 356 352 1 2 346 63 291 122 19 12 29 43 20 335 337 20 28 321 80 48 83 87 353 294 244 310 325 297 51 290 13 15 289 276
360 4 6 8 8 9 7 5 2 11 11 18 17 12 14 3 359 21 112 247 334 347 95 148 237 259 287 304 350 342 276 315 74 6 77 76 142 284 352 259 285 347 340 65 129 166 220
3 5 9 10 9 9 9 7 5 6 11 25 21 31 4 8 26 21 346 310 315 313 100 53 2 282 333 326 301 262 252 322 54 57 35 157 199 277 261 293 265 170 200 171 133 260 243
1 2 4 7 11 11 8 8 7 3 5 2 352 322 328 329 58 331 307 298 278 331 246 184 200 236 247 254 313 265 294 285 82 49 220 179 304 317 332 357 358 211 222 212 220 142 226
359 360 1 2 3 7 9 8 7 4 1 3 6 3 334 33 25 65 353 289 320 309 352 34 355 347 351 297 234 268 256 280 289 270 245 169 195 191 220 250 243 283 278 274 245 235 250
355 356 355 356 358 359 3 4 8 8 352 9 17 14 15 309 325 327 254 271 299 322 3 34 307 8 74 316 310 264 304 317 310 291 223 157 228 220 246 259 272 274 278 272 259 255 241
348 355 355 353 353 354 356 359 1 9 12 9 25 6 339 297 297 312 311 339 315 348 317 314 314 284 209 213 219 275 257 223 230 292 199 204 257 254 286 271 263 283 282 268 259 264 279
341 348 352 352 352 352 353 355 357 2 15 42 17 5 307 284 326 349 225 343 308 319 297 24 330 322 310 306 311 298 277 257 239 217 223 188 213 272 270 330 307 284 262 142 330 291 265
338 339 347 349 349 350 352 354 357 358 4 11 24 359 341 279 294 259 325 305 313 322 269 297 324 330 309 320 309 292 274 263 254 244 221 223 185 219 288 14 263 253 161 233 237 272 251
337 335 339 345 347 348 349 349 352 356 354 353 300 335 293 281 262 296 323 319 309 323 308 302 304 327 319 303 294 317 318 320 86 24 238 189 135 248 260 204 285 292 192 175 182 284 254
331 333 333 340 344 345 345 345 344 347 350 352 327 241 289 305 253 250 323 296 314 328 312 260 321 321 337 201 231 266 273 280 295 92 65 86 84 188 290 248 252 238 170 167 143 271 216
324 327 331 335 340 342 341 341 341 339 341 351 277 259 293 279 277 274 235 265 306 274 267 303 339 326 357 352 196 226 249 279 254 260 180 170 197 227 231 237 275 220 157 181 76 262 194
318 322 329 333 337 341 340 339 338 336 334 340 360 228 315 275 286 277 277 266 258 232 234 308 343 332 346 348 239 311 301 336 317 295 227 193 182 210 220 218 273 156 152 195 217 291 267
311 318 323 328 330 336 338 336 334 334 332 327 324 276 287 274 265 288 280 265 262 269 263 255 237 304 289 359 355 342 321 309 324 283 310 284 180 233 215 229 243 223 235 274 284 278 288
Wind_Speed_850mb
43 44 44 46 46 46 46 46 45 46 45 45 44 44 43 39 36 35 33 29 27 25 28 30 27 22 10 6 6 6 7 15 11 7 14 12 12 11 6 7 14 11 18 34 46 52 47
44 44 44 45 45 46 48 49 49 50 50 50 48 46 46 43 40 37 33 30 26 23 27 26 20 12 4 6 6 12 14 10 6 3 10 10 11 13 4 2 2 14 17 24 21 31 31
43 45 47 47 47 50 51 51 52 53 51 49 48 48 49 46 40 36 31 27 23 20 22 20 12 12 11 11 6 4 9 9 6 6 10 8 14 11 17 14 19 24 13 14 10 5 8
43 44 46 48 48 48 51 53 56 58 57 51 47 45 47 45 41 32 27 21 15 15 18 8 11 12 7 11 6 4 5 8 9 12 14 12 13 9 4 13 18 12 7 7 8 16 10
43 44 47 49 49 51 51 54 56 59 63 57 44 44 47 44 36 26 22 17 11 9 8 9 1 7 9 9 5 1 7 6 13 8 16 19 20 10 5 3 8 5 7 7 12 15 12
44 47 50 53 55 54 54 54 58 60 63 62 44 41 41 38 27 20 22 18 9 4 1 11 6 8 3 6 10 7 3 5 12 18 19 13 10 5 4 7 6 11 9 4 4 10 4
46 50 52 53 55 57 56 55 60 62 61 60 46 37 31 26 18 20 30 13 20 2 30 19 11 12 27 6 7 2 13 10 13 6 3 6 7 11 21 17 20 11 10 8 5 11 8
48 50 53 55 55 56 55 57 60 64 61 59 48 35 19 12 13 16 19 25 22 18 16 30 31 36 32 18 6 11 14 3 8 8 13 13 5 9 12 9 6 11 11 11 12 12 12
48 52 53 54 56 56 58 59 60 62 61 56 47 31 19 8 11 14 17 20 18 25 6 20 12 18 16 18 8 13 9 4 1 6 7 5 15 13 11 6 12 10 10 15 18 22 14
52 52 53 55 55 54 56 58 61 61 60 55 43 27 14 5 7 22 29 26 27 32 6 7 9 7 20 12 8 20 21 10 0 7 9 10 9 7 12 7 8 6 12 17 21 17 8
55 55 53 53 54 54 52 58 63 61 58 54 37 23 4 11 10 28 34 30 23 19 8 12 7 14 10 11 7 13 25 18 12 13 2 17 9 14 6 6 3 11 12 7 17 21 7
59 57 54 53 56 56 56 62 64 60 56 49 29 17 4 3 8 20 27 22 11 7 7 5 5 6 3 17 23 19 27 23 18 10 8 18 12 6 10 6 3 2 6 11 9 4 8
61 56 54 53 60 55 59 64 65 59 55 39 19 12 8 6 13 21 21 10 9 8 16 15 12 13 13 8 9 14 9 7 9 2 6 7 2 5 4 5 11 12 9 9 9 5 10
60 58 53 56 59 59 62 65 64 57 50 30 11 16 9 10 20 28 22 8 14 11 14 12 19 23 6 11 8 9 7 8 20 7 3 3 11 9 3 2 9 9 10 8 8 7 13
57 59 58 57 58 59 62 63 61 53 44 22 10 8 7 12 27 18 5 10 4 9 11 12 16 9 12 25 16 16 13 8 6 9 4 6 7 18 13 8 5 6 8 12 8 12 13
56 59 60 59 56 58 60 62 58 53 41 13 8 8 8 18 16 15 10 2 5 6 2 8 8 9 9 13 10 12 9 6 4 7 2 6 11 7 7 16 7 4 6 6 5 7 9
53 55 57 58 58 58 58 61 64 52 43 15 8 7 17 12 13 10 5 7 5 18 12 4 5 5 9 7 7 8 7 15 9 7 11 5 4 10 9 5 8 9 3 5 4 8 8
52 53 54 55 56 56 55 58 60 55 52 20 11 5 12 12 11 5 5 12 17 25 9 4 4 3 1 7 7 6 7 4 12 9 3 2 4 8 16 29 18 11 12 8 7 7 8
49 51 52 54 55 54 52 52 52 49 53 46 18 10 5 13 4 6 12 12 5 13 6 8 6 7 7 6 5 5 5 11 7 3 3 4 2 8 14 9 8 7 7 11 6 4 16
47 47 49 52 54 52 51 49 44 37 38 31 13 8 9 5 7 4 10 9 10 21 13 13 5 9 6 5 6 8 6 8 20 8 12 16 10 14 12 15 9 27 34 28 18 10 17
46 48 48 51 53 54 51 48 44 37 28 22 15 5 8 8 9 14 4 9 17 9 10 8 5 4 3 7 9 9 6 11 19 26 11 14 12 13 24 32 32 38 41 36 33 33 17
44 45 48 50 53 55 55 52 47 40 26 16 10 11 12 18 23 12 8 6 7 14 10 11 7 12 4 7 15 24 13 6 12 11 10 5 9 5 30 28 32 37 33 30 33 32 10
45 44 46 48 52 53 53 51 49 45 36 10 14 9 6 11 11 6 2 9 16 21 11 15 12 10 10 12 31 36 36 35 27 17 10 10 7 9 33 11 24 20 9 3 5 13 10
41 45 45 46 48 51 50 48 45 42 37 23 7 9 7 8 4 7 20 33 20 24 14 17 24 8 13 47 49 46 54 51 46 37 32 18 6 5 9 8 6 7 5 5 7 20 16
38 43 44 44 46 48 48 47 44 38 31 20 4 5 5 7 12 30 9 10 33 29 11 28 18 36 50 30 7 13 10 7 8 16 5 21 9 5 4 6 14 11 8 8 2 17 18
38 39 44 42 44 46 46 46 47 42 34 25 6 7 6 13 9 12 21 20 5 9 11 12 43 36 15 3 3 6 5 7 6 7 16 14 7 4 2 4 10 10 6 12 7 12 12
39 37 42 43 43 45 45 44 43 44 39 28 3 13 10 14 34 22 9 8 17 11 8 19 26 22 16 5 1 6 7 7 4 3 8 6 3 13 11 9 13 8 13 11 3 12 15
38 40 39 42 44 43 45 45 42 41 39 31 13 10 12 17 57 56 47 47 29 21 6 14 20 8 9 4 3 5 5 6 8 6 5 11 10 7 5 9 13 18 9 10 11 26 32
37 37 39 39 44 45 44 44 42 40 36 30 25 14 26 31 49 80 75 73 75 82 56 24 19 10 7 3 5 6 6 6 4 6 5 5 8 4 11 11 13 24 29 36 51 45 67
Wind_Direction_850mb
21 19 16 13 11 8 6 3 360 356 352 349 346 341 335 326 320 316 314 313 318 321 322 317 313 320 328 287 241 45 68 99 83 36 353 329 270 244 210 236 299 251 278 273 267 263 260
20 17 14 11 8 6 2 358 354 350 347 344 342 340 338 330 321 314 308 304 307 314 322 323 323 327 299 285 96 42 78 65 36 4 306 339 359 337 246 281 160 303 301 289 289 288 294
20 19 17 15 13 10 7 3 358 351 344 339 338 338 339 335 325 315 306 300 298 308 321 318 327 326 272 231 139 329 320 341 315 253 5 323 341 335 351 335 327 310 310 319 299 282 268
17 15 13 12 12 8 5 2 1 358 353 344 337 337 340 339 331 322 315 308 294 299 321 317 331 314 254 147 250 252 282 265 350 251 267 301 293 304 289 302 330 338 345 320 342 358 282
11 8 7 5 3 0 357 358 356 355 355 351 343 340 342 343 339 337 339 329 304 299 317 334 357 313 277 187 122 123 286 331 327 286 268 281 233 208 251 106 0 300 251 264 314 251 253
0 358 356 355 353 351 351 352 353 352 352 352 346 344 346 347 355 10 9 6 344 42 29 329 225 312 216 170 176 297 178 267 306 300 304 256 201 119 15 89 236 243 260 276 265 337 1
355 352 352 353 351 350 351 352 352 349 347 349 346 344 349 360 11 25 37 31 19 44 324 260 262 277 295 87 25 208 147 344 352 320 295 317 107 225 242 214 237 259 247 281 254 265 292
354 352 351 351 351 351 351 352 352 349 347 346 346 341 344 13 19 15 31 35 24 332 308 287 259 257 266 275 247 297 192 148 7 310 335 10 294 276 257 289 321 325 313 302 270 283 294
356 354 353 353 354 355 352 351 351 352 349 348 346 341 337 323 359 14 357 8 353 327 329 298 221 229 243 221 221 248 215 137 95 338 340 181 258 302 328 349 6 1 354 343 321 324 313
357 356 354 355 357 356 353 352 350 350 350 349 347 345 342 344 59 40 13 13 335 319 54 270 174 191 179 194 255 233 210 165 171 246 271 258 261 330 309 343 40 333 340 327 324 331 276
357 355 355 358 0 358 358 353 350 350 349 349 349 352 349 72 36 18 352 331 313 315 59 187 164 188 197 194 294 184 187 174 192 226 156 255 268 294 292 166 129 229 319 292 284 276 280
357 355 356 359 1 358 356 352 351 352 350 352 354 11 148 9 42 343 340 344 311 38 63 104 91 341 17 239 256 181 184 222 252 214 218 240 273 134 186 248 220 325 334 319 300 189 230
360 359 358 0 358 357 354 352 351 354 350 359 20 54 81 43 345 351 357 349 47 64 342 4 2 336 317 281 301 164 199 228 225 22 297 329 352 173 111 336 345 58 44 344 331 349 238
3 3 3 359 356 353 352 350 350 355 352 6 59 73 38 10 2 353 349 54 65 18 24 17 337 313 338 12 13 358 354 305 17 83 99 190 335 23 62 244 240 235 175 166 261 291 303
358 358 355 355 356 354 354 353 352 358 355 13 69 41 337 13 3 11 4 52 26 6 30 346 336 20 358 4 6 16 11 42 34 48 62 7 257 320 295 3 79 262 222 218 242 270 265
358 359 359 1 4 3 2 1 2 4 1 11 37 356 352 1 2 346 63 291 122 19 12 29 43 20 335 337 20 28 321 80 48 83 87 353 294 244 310 325 297 51 290 13 15 289 276
360 4 6 8 8 9 7 5 2 11 11 18 17 12 14 3 359 21 112 247 334 347 95 148 237 259 287 304 350 342 276 315 74 6 77 76 142 284 352 259 285 347 340 65 129 166 220
3 5 9 10 9 9 9 7 5 6 11 25 21 31 4 8 26 21 346 310 315 313 100 53 2 282 333 326 301 262 252 322 54 57 35 157 199 277 261 293 265 170 200 171 133 260 243
1 2 4 7 11 11 8 8 7 3 5 2 352 322 328 329 58 331 307 298 278 331 246 184 200 236 247 254 313 265 294 285 82 49 220 179 304 317 332 357 358 211 222 212 220 142 226
359 360 1 2 3 7 9 8 7 4 1 3 6 3 334 33 25 65 353 289 320 309 352 34 355 347 351 297 234 268 256 280 289 270 245 169 195 191 220 250 243 283 278 274 245 235 250
355 356 355 356 358 359 3 4 8 8 352 9 17 14 15 309 325 327 254 271 299 322 3 34 307 8 74 316 310 264 304 317 310 291 223 157 228 220 246 259 272 274 278 272 259 255 241
348 355 355 353 353 354 356 359 1 9 12 9 25 6 339 297 297 312 311 339 315 348 317 314 314 284 209 213 219 275 257 223 230 292 199 204 257 254 286 271 263 283 282 268 259 264 279
341 348 352 352 352 352 353 355 357 2 15 42 17 5 307 284 326 349 225 343 308 319 297 24 330 322 310 306 311 298 277 257 239 217 223 188 213 272 270 330 307 284 262 142 330 291 265
338 339 347 349 349 350 352 354 357 358 4 11 24 359 341 279 294 259 325 305 313 322 269 297 324 330 309 320 309 292 274 263 254 244 221 223 185 219 288 14 263 253 161 233 237 272 251
337 335 339 345 347 348 349 349 352 356 354 353 300 335 293 281 262 296 323 319 309 323 308 302 304 327 319 303 294 317 318 320 86 24 238 189 135 248 260 204 285 292 192 175 182 284 254
331 333 333 340 344 345 345 345 344 347 350 352 327 241 289 305 253 250 323 296 314 328 312 260 321 321 337 201 231 266 273 280 295 92 65 86 84 188 290 248 252 238 170 167 143 271 216
324 327 331 335 340 342 341 341 341 339 341 351 277 259 293 279 277 274 235 265 306 274 267 303 339 326 357 352 196 226 249 279 254 260 180 170 197 227 231 237 275 220 157 181 76 262 194
318 322 329 333 337 341 340 339 338 336 334 340 360 228 315 275 286 277 277 266 258 232 234 308 343 332 346 348 239 311 301 336 317 295 227 193 182 210 220 218 273 156 152 195 217 291 267
311 318 323 328 330 336 338 336 334 334 332 327 324 276 287 274 265 288 280 265 262 269 263 255 237 304 289 359 355 342 321 309 324 283 310 284 180 233 215 229 243 223 235 274 284 278 288